| time (UTC) | temp F | wind direction | speed MPH | gust MPH | rain 1hr in | rain 24hr in | rain mn in | humidity % | barometer mb |
| 20260503001653 | 73 | 48 | 1.0 | 8.0 | 0.00 | 0.01 | 0.01 | 44 | 1018.7 |
| 20260503000649 | 73 | 51 | 1.0 | 8.0 | 0.00 | 0.01 | 0.01 | 42 | 1018.7 |
| 20260502235654 | 74 | 66 | 1.0 | 6.0 | 0.00 | 0.01 | 0.01 | 42 | 1018.7 |
| 20260502234640 | 74 | 36 | 1.0 | 8.0 | 0.00 | 0.01 | 0.01 | 42 | 1018.6 |
| 20260502233610 | 74 | 52 | 2.0 | 8.0 | 0.00 | 0.01 | 0.01 | 42 | 1018.6 |
| 20260502232625 | 75 | 43 | 2.0 | 7.0 | 0.00 | 0.01 | 0.01 | 42 | 1018.6 |
| 20260502230408 | 75 | 55 | 3.0 | 9.0 | 0.00 | 0.01 | 0.01 | 42 | 1018.5 |
| 20260502225333 | 75 | 96 | 3.0 | 10.0 | 0.00 | 0.01 | 0.01 | 39 | 1018.5 |
| 20260502224258 | 75 | 49 | 3.0 | 10.0 | 0.00 | 0.02 | 0.01 | 38 | 1018.5 |
| 20260502214911 | 75 | 95 | 2.0 | 11.0 | 0.00 | 0.04 | 0.01 | 39 | 1018.7 |
| 20260502212758 | 74 | 41 | 3.0 | 11.0 | 0.00 | 0.07 | 0.01 | 42 | 1019.0 |
| 20260502211726 | 75 | 65 | 3.0 | 10.0 | 0.00 | 0.08 | 0.01 | 40 | 1019.2 |
| 20260502210659 | 75 | 36 | 3.0 | 9.0 | 0.00 | 0.09 | 0.01 | 43 | 1019.3 |
| 20260502205658 | 75 | 11 | 3.0 | 9.0 | 0.00 | 0.12 | 0.01 | 40 | 1019.5 |
| 20260502204635 | 74 | 59 | 2.0 | 10.0 | 0.00 | 0.12 | 0.01 | 45 | 1019.6 |
| 20260502203634 | 75 | 75 | 1.0 | 10.0 | 0.00 | 0.12 | 0.01 | 42 | 1019.9 |
| 20260502202642 | 74 | 65 | 2.0 | 9.0 | 0.00 | 0.12 | 0.01 | 44 | 1019.9 |
| 20260502201655 | 74 | 46 | 1.0 | 9.0 | 0.00 | 0.12 | 0.01 | 44 | 1020.0 |
| 20260502200634 | 75 | 57 | 3.0 | 11.0 | 0.00 | 0.12 | 0.01 | 44 | 1020.1 |
| 20260502195606 | 74 | 30 | 3.0 | 11.0 | 0.00 | 0.12 | 0.01 | 49 | 1020.3 |
| 20260502194604 | 74 | 55 | 3.0 | 11.0 | 0.00 | 0.12 | 0.01 | 44 | 1020.3 |
| 20260502193628 | 73 | 77 | 3.0 | 11.0 | 0.00 | 0.12 | 0.01 | 45 | 1020.3 |
| 20260502192611 | 74 | 0 | 2.0 | 11.0 | 0.00 | 0.13 | 0.01 | 45 | 1020.4 |
| 20260502191632 | 74 | 100 | 4.0 | 11.0 | 0.00 | 0.14 | 0.01 | 45 | 1020.5 |
| 20260502184308 | 72 | 0 | 3.0 | 10.0 | 0.00 | 0.15 | 0.01 | 52 | 1020.6 |
| 20260502182116 | 72 | 338 | 4.0 | 11.0 | 0.00 | 0.16 | 0.01 | 51 | 1020.9 |
| 20260502181137 | 71 | 286 | 3.0 | 13.0 | 0.00 | 0.18 | 0.01 | 56 | 1021.0 |
| 20260502162440 | 67 | 336 | 3.0 | 12.0 | 0.00 | 0.39 | 0.01 | 63 | 1022.1 |
| 20260502161416 | 67 | 5 | 2.0 | 9.0 | 0.00 | 0.39 | 0.01 | 63 | 1022.2 |
| 20260502160410 | 66 | 347 | 2.0 | 9.0 | 0.00 | 0.39 | 0.01 | 60 | 1022.2 |
| 20260502152223 | 63 | 5 | 2.0 | 7.0 | 0.00 | 0.42 | 0.01 | 72 | 1022.1 |
| 20260502151225 | 62 | 355 | 1.0 | 8.0 | 0.00 | 0.44 | 0.01 | 75 | 1022.2 |
| 20260502150210 | 62 | 9 | 3.0 | 8.0 | 0.00 | 0.44 | 0.01 | 73 | 1022.1 |
| 20260502123704 | 48 | 324 | 0.0 | 2.0 | 0.00 | 0.53 | 0.01 | 96 | 1020.3 |
| 20260502122624 | 47 | 327 | 0.0 | 1.0 | 0.00 | 0.54 | 0.01 | 96 | 1020.3 |
| 20260502121626 | 47 | 311 | 0.0 | 1.0 | 0.00 | 0.59 | 0.01 | 95 | 1020.0 |
| 20260502120620 | 47 | 355 | 0.0 | 1.0 | 0.00 | 0.60 | 0.01 | 95 | 1019.7 |
| 20260502115625 | 47 | 355 | 0.0 | 0.0 | 0.00 | 0.60 | 0.01 | 95 | 1019.5 |
| 20260502113508 | 48 | 355 | 0.0 | 0.0 | 0.00 | 0.70 | 0.01 | 95 | 1019.3 |
| 20260502112450 | 48 | 355 | 0.0 | 1.0 | 0.00 | 0.73 | 0.01 | 95 | 1019.2 |
| 20260502111453 | 48 | 355 | 0.0 | 2.0 | 0.00 | 0.76 | 0.01 | 95 | 1019.0 |
| 20260502110419 | 48 | 0 | 0.0 | 2.0 | 0.00 | 0.79 | 0.01 | 95 | 1018.9 |
| 20260502104315 | 48 | 346 | 0.0 | 3.0 | 0.00 | 0.82 | 0.01 | 95 | 1018.9 |
| 20260502103340 | 49 | 0 | 1.0 | 3.0 | 0.00 | 0.83 | 0.01 | 95 | 1018.6 |
| 20260502101247 | 49 | 336 | 2.0 | 5.0 | 0.00 | 0.89 | 0.01 | 95 | 1018.1 |
| 20260502090852 | 50 | 11 | 2.0 | 6.0 | 0.00 | 0.97 | 0.00 | 95 | 1017.2 |
| 20260502070607 | 51 | 355 | 2.0 | 5.0 | 0.00 | 1.17 | 0.00 | 95 | 1016.9 |
| 20260502065606 | 51 | 5 | 1.0 | 5.0 | 0.00 | 1.17 | 0.00 | 95 | 1016.8 |
| 20260502064607 | 51 | 30 | 2.0 | 5.0 | 0.00 | 1.17 | 0.00 | 95 | 1016.8 |
| 20260502063607 | 51 | 0 | 1.0 | 4.0 | 0.00 | 1.17 | 0.00 | 95 | 1016.8 |
| 20260502062536 | 51 | 351 | 2.0 | 7.0 | 0.00 | 1.17 | 0.00 | 95 | 1017.0 |
| 20260502061502 | 51 | 17 | 2.0 | 6.0 | 0.00 | 1.17 | 0.00 | 95 | 1017.1 |
| 20260502060449 | 51 | 339 | 1.0 | 3.0 | 0.00 | 1.18 | 0.00 | 95 | 1017.1 |
| 20260502055446 | 51 | 0 | 1.0 | 3.0 | 0.00 | 1.18 | 0.00 | 95 | 1017.1 |
| 20260502054413 | 51 | 13 | 1.0 | 2.0 | 0.00 | 1.18 | 0.00 | 95 | 1017.3 |
| 20260502053400 | 51 | 9 | 1.0 | 4.0 | 0.00 | 1.18 | 0.00 | 95 | 1017.1 |
| 20260502052328 | 51 | 355 | 1.0 | 4.0 | 0.00 | 1.18 | 0.00 | 95 | 1017.0 |
| 20260502051339 | 52 | 342 | 1.0 | 3.0 | 0.00 | 1.18 | 0.00 | 94 | 1016.9 |
| 20260502050330 | 52 | 40 | 0.0 | 4.0 | 0.00 | 1.18 | 0.00 | 94 | 1016.7 |
| 20260502044115 | 52 | 49 | 1.0 | 6.0 | 0.00 | 1.18 | 1.18 | 94 | 1016.6 |
| 20260502043112 | 52 | 24 | 1.0 | 4.0 | 0.00 | 1.18 | 1.18 | 94 | 1016.8 |
| 20260502040919 | 52 | 35 | 1.0 | 5.0 | 0.00 | 1.18 | 1.18 | 94 | 1016.9 |
| 20260502035903 | 53 | 342 | 1.0 | 8.0 | 0.00 | 1.18 | 1.18 | 94 | 1016.6 |
| 20260502034910 | 53 | 345 | 2.0 | 9.0 | 0.00 | 1.18 | 1.18 | 94 | 1016.6 |
| 20260502033859 | 53 | 24 | 3.0 | 9.0 | 0.00 | 1.18 | 1.18 | 94 | 1016.7 |
| 20260502032833 | 53 | 348 | 3.0 | 8.0 | 0.00 | 1.18 | 1.18 | 94 | 1016.8 |
| 20260502031844 | 53 | 355 | 3.0 | 9.0 | 0.00 | 1.18 | 1.18 | 94 | 1016.7 |
| 20260502025646 | 52 | 22 | 3.0 | 10.0 | 0.00 | 1.18 | 1.18 | 94 | 1016.3 |
| 20260502023520 | 52 | 36 | 4.0 | 11.0 | 0.00 | 1.19 | 1.18 | 94 | 1015.8 |
| 20260502022448 | 52 | 342 | 3.0 | 14.0 | 0.00 | 1.19 | 1.18 | 94 | 1015.7 |
| 20260502021454 | 52 | 47 | 3.0 | 14.0 | 0.00 | 1.19 | 1.18 | 94 | 1015.5 |
| 20260502015319 | 53 | 31 | 3.0 | 10.0 | 0.00 | 1.20 | 1.18 | 95 | 1015.3 |
| 20260502014329 | 53 | 15 | 3.0 | 13.0 | 0.00 | 1.20 | 1.18 | 95 | 1015.1 |
| 20260502013322 | 53 | 55 | 4.0 | 13.0 | 0.00 | 1.20 | 1.18 | 95 | 1014.9 |
| 20260502012345 | 53 | 58 | 3.0 | 12.0 | 0.00 | 1.20 | 1.18 | 95 | 1014.7 |
| 20260502011315 | 53 | 32 | 3.0 | 12.0 | 0.00 | 1.20 | 1.18 | 95 | 1014.5 |
| 20260502010334 | 53 | 13 | 4.0 | 11.0 | 0.00 | 1.20 | 1.18 | 95 | 1014.5 |
| 20260502005309 | 53 | 344 | 5.0 | 14.0 | 0.00 | 1.20 | 1.18 | 95 | 1014.2 |
| 20260502004332 | 53 | 5 | 6.0 | 15.0 | 0.00 | 1.20 | 1.18 | 95 | 1014.1 |
| 20260502003317 | 54 | 26 | 6.0 | 18.0 | 0.00 | 1.20 | 1.18 | 95 | 1013.9 |
| 20260502002310 | 54 | 51 | 6.0 | 18.0 | 0.00 | 1.20 | 1.18 | 95 | 1013.7 |